GW1378 Weather Reports


Display with metric or nautical units.
time (UTC)temp
F
wind
direction
speed
MPH
gust
MPH
rain 1hr
in
rain 24hr
in
rain mn
in
humidity
%
barometer
mb
20260906223038 75 100 0.0 5.0 0.00 0.07 0.01 42 1020.1
20260906221543 75 80 0.0 1.0 0.00 0.07 0.01 43 1020.2
20260906220110 75 15 0.0 3.0 0.00 0.07 0.01 43 1020.5
20260906214537 76 94 0.0 6.0 0.00 0.07 0.01 42 1020.9
20260906213033 76 67 0.0 7.0 0.00 0.07 0.01 40 1021.0
20260906211537 78 93 0.0 8.0 0.00 0.07 0.01 39 1020.9
20260906210050 77 85 1.0 6.0 0.00 0.07 0.01 37 1021.1
20260906204529 77 140 0.0 5.0 0.00 0.07 0.01 37 1021.1
20260906203033 79 78 1.0 10.0 0.00 0.07 0.01 33 1021.2
20260906201525 78 84 0.0 7.0 0.00 0.07 0.01 33 1021.5
20260906200037 80 61 0.0 4.0 0.00 0.07 0.01 32 1021.5
20260906194524 79 90 0.0 9.0 0.00 0.07 0.01 31 1021.7
20260906193021 79 75 0.0 4.0 0.00 0.07 0.01 29 1021.7
20260906191519 79 124 0.0 4.0 0.00 0.07 0.01 32 1022.0
20260906190015 78 67 0.0 6.0 0.00 0.07 0.01 32 1022.1
20260906184512 78 11 0.0 9.0 0.00 0.07 0.01 33 1022.3
20260906183018 77 89 0.0 3.0 0.00 0.07 0.01 34 1022.6
20260906181505 76 82 0.0 8.0 0.00 0.07 0.01 35 1022.7
20260906180003 76 120 0.0 3.0 0.00 0.07 0.01 36 1022.9
20260906174502 77 92 0.0 4.0 0.00 0.07 0.01 37 1023.2
20260906173100 76 93 0.0 6.0 0.00 0.07 0.01 38 1023.5
20260906171605 76 101 0.0 3.0 0.00 0.07 0.01 39 1023.8
20260906170055 76 70 0.0 7.0 0.00 0.07 0.01 39 1024.0
20260906164555 75 74 1.0 6.0 0.00 0.07 0.01 42 1024.1
20260906163050 75 103 0.0 3.0 0.00 0.07 0.01 40 1024.0
20260906161540 74 77 0.0 3.0 0.00 0.07 0.01 40 1024.0
20260906160047 73 71 0.0 3.0 0.00 0.07 0.01 41 1024.0
20260906154534 71 101 0.0 0.0 0.00 0.07 0.01 45 1023.9
20260906153026 67 65 0.0 0.0 0.00 0.07 0.01 62 1024.0
20260906151522 63 298 0.0 0.0 0.00 0.07 0.01 68 1024.1
20260906150039 60 298 0.0 0.0 0.00 0.07 0.01 84 1024.5
20260906144516 56 298 0.0 0.0 0.00 0.07 0.01 75 1024.9
20260906143020 53 298 0.0 0.0 0.00 0.07 0.01 78 1024.9
20260906141505 50 298 0.0 0.0 0.00 0.07 0.01 78 1025.0
20260906140002 48 298 0.0 0.0 0.00 0.07 0.01 78 1025.0
20260906134501 48 298 0.0 1.0 0.00 0.07 0.01 79 1025.0
20260906133059 46 298 0.0 2.0 0.00 0.07 0.01 79 1025.0
20260906131557 45 298 0.0 1.0 0.00 0.07 0.01 79 1024.9
20260906130058 45 298 0.0 0.0 0.00 0.07 0.01 79 1024.9
20260906124556 45 298 0.0 0.0 0.00 0.07 0.01 79 1024.7
20260906123054 45 298 0.0 0.0 0.00 0.07 0.01 79 1024.7
20260906121553 45 298 0.0 1.0 0.00 0.07 0.01 79 1024.8
20260906120056 45 298 0.0 1.0 0.00 0.07 0.01 79 1024.8
20260906114551 46 298 0.0 0.0 0.00 0.07 0.01 79 1024.8
20260906113055 46 298 0.0 0.0 0.00 0.07 0.01 79 1024.8
20260906111549 46 298 0.0 0.0 0.00 0.07 0.01 79 1024.7
20260906110046 47 298 0.0 0.0 0.00 0.07 0.01 79 1024.5
20260906104557 47 298 0.0 1.0 0.00 0.07 0.01 79 1024.3
20260906103043 47 298 0.0 0.0 0.00 0.07 0.01 79 1024.5
20260906101543 47 298 0.0 2.0 0.00 0.07 0.01 79 1024.4
20260906100046 47 298 0.0 0.0 0.00 0.07 0.01 79 1024.4
20260906094606 47 298 0.0 0.0 0.00 0.07 0.01 79 1024.5
20260906093040 47 298 0.0 0.0 0.00 0.07 0.01 79 1024.8
20260906091543 47 298 0.0 1.0 0.00 0.07 0.01 79 1024.8
20260906090038 48 298 0.0 1.0 0.00 0.07 0.01 79 1024.7
20260906084540 48 298 0.0 2.0 0.00 0.07 0.01 79 1024.6
20260906083037 48 294 0.0 2.0 0.00 0.07 0.01 79 1024.7
20260906081544 48 294 0.0 2.0 0.00 0.07 0.01 79 1024.8
20260906080033 49 168 0.0 2.0 0.00 0.07 0.01 79 1024.9
20260906074532 49 168 0.0 2.0 0.00 0.07 0.01 79 1025.0
20260906073030 49 168 0.0 1.0 0.01 0.07 0.01 79 1025.0
20260906071529 49 168 0.0 1.0 0.01 0.07 0.01 79 1025.0
20260906070028 50 168 0.0 1.0 0.01 0.07 0.01 79 1024.9
20260906064526 50 168 0.0 3.0 0.01 0.07 0.01 79 1024.9
20260906063030 50 146 0.0 2.0 0.00 0.06 0.00 79 1024.8
20260906061533 50 146 0.0 2.0 0.00 0.06 0.00 80 1025.1
20260906060019 51 89 0.0 2.0 0.00 0.06 0.00 81 1024.9
20260906054519 52 89 0.0 1.0 0.01 0.06 0.06 81 1025.1
20260906053019 52 89 0.0 2.0 0.01 0.06 0.06 82 1025.2
20260906051517 53 89 0.0 1.0 0.02 0.06 0.06 81 1025.3
20260906050020 54 89 0.0 2.0 0.04 0.06 0.06 81 1025.2
20260906044519 55 89 0.0 0.0 0.05 0.05 0.05 82 1025.2
20260906043016 55 89 0.0 3.0 0.05 0.05 0.05 83 1025.4
20260906041516 56 262 0.0 2.0 0.04 0.04 0.04 83 1025.5
20260906040015 59 293 1.0 5.0 0.02 0.02 0.02 77 1025.6
20260906034513 61 314 3.0 5.0 0.00 0.00 0.00 56 1025.4
20260906033010 60 192 0.0 0.0 0.00 0.00 0.00 54 1024.6
20260906031514 60 192 0.0 0.0 0.00 0.00 0.00 54 1023.9
20260906030010 60 192 0.0 0.0 0.00 0.00 0.00 51 1023.7
20260906024509 60 192 0.0 0.0 0.00 0.00 0.00 51 1023.5
20260906023014 60 192 0.0 0.0 0.00 0.00 0.00 51 1023.4
20260906021510 61 192 0.0 0.0 0.00 0.00 0.00 47 1023.4
20260906020008 63 192 0.0 0.0 0.00 0.00 0.00 46 1023.0
20260906014509 64 192 0.0 0.0 0.00 0.00 0.00 43 1023.1
20260906013007 67 192 0.0 0.0 0.00 0.00 0.00 41 1022.9
20260906011512 69 192 0.0 0.0 0.00 0.00 0.00 38 1022.8
20260906010008 70 192 0.0 0.0 0.00 0.00 0.00 35 1022.6
20260906004506 71 278 0.0 2.0 0.00 0.00 0.00 35 1022.5
20260906003005 72 225 1.0 3.0 0.00 0.00 0.00 34 1022.4
20260906001505 73 210 1.0 5.0 0.00 0.00 0.00 34 1022.3
20260906000005 73 113 0.0 4.0 0.00 0.00 0.00 34 1022.3
20260905234508 74 109 0.0 4.0 0.00 0.00 0.00 34 1022.2
20260905233003 74 100 2.0 7.0 0.00 0.00 0.00 31 1022.1
20260905231506 75 79 1.0 6.0 0.00 0.00 0.00 31 1022.1
20260905230002 76 78 1.0 4.0 0.00 0.00 0.00 30 1022.1
20260905224502 76 43 1.0 10.0 0.00 0.00 0.00 30 1022.1